Погода в Колатсельге

Россия / Республика Карелия     61°40′42″N   32°13′48″E
темп.,
°C
ветер,
м/с
пор.,
м/с
влажн.,
%
обл.,
%
осадки,
мм/ч
давл.,
гПа
погр.,
м
13 мая, чт
чт1300:00+14юв22710 0.0 102011
03:00+13вюв22750 0.0 101912
06:00+14юв25760 0.0 1018134
09:00+20юв24543 0.0 1017402
12:00+24ююв35395 0.0 10161994
15:00+20ююз2360100 0.0 101564
18:00+20зсз11614 0.1 1014239
21:00+16юз117982 0.3 101313
14 мая, пт
пт1400:00+13ююз11875 0.0 101210
03:00+12юв229183 0.0 101228
06:00+11ююз41182100 0.1 1012447
09:00+14ю357598 0.5 1012584
12:00+18ю46486 0.0 10131669
15:00+18ю47405 0.0 10131619
18:00+18ю464383 0.0 10121580
21:00+14вюв1164100 0.0 101211
15 мая, сб
сб1500:00+12в246989 0.0 101260
03:00+12в277355 0.0 1011170
06:00+12всв38745 0.0 1010195
09:00+18в475384 0.0 1008761
12:00+20в5748100 0.1 10061748
15:00+15всв3889100 5.5 1006478
18:00+17всв4878100 0.3 1003891
21:00+14юв25952 1.2 1002139
16 мая, вс
вс1600:00+10юз3898100 0.1 1003236
03:00+10зюз4897100 0.1 1004337
06:00+10зюз399356 0.0 1006582
09:00+12зюз59715 0.0 1008772
12:00+14зюз576247 0.0 10101151
15:00+16зюз475313 0.0 10111379
18:00+16юз36556 0.0 10111296
21:00+12ююз227712 0.0 101332
17 мая, пн
пн1700:00+9ю228565 0.0 101440
03:00+8ююв118442 0.0 101513
06:00+10юв137813 0.0 1015109
09:00+16юв355992 0.0 1016477
12:00+17вюв237053 0.0 1016781
15:00+20ююв235051 0.1 10161597
18:00+19в3460100 0.1 1015847
21:00+15в3984100 0.1 1015351